Tracking 18980 objects as of 23-Feb-2018
HD Live streaming from Space Station
objects crossing your sky now

INTELSAT 507

Track INTELSAT 507 now!
INTELSAT 507 is classified as:


NORAD ID: 14421
Int'l Code: 1983-105A
Perigee: 35,922.1 km
Apogee: 35,992.7 km
Inclination: 15.0 °
Period: 1,444.5 minutes
Semi major axis: 42328 km
RCS: 6.3095 m2 (large)
Launch date: October 19, 1983
Source: International Telecommunications Satellite Organization (ITSO)
Launch site: FRENCH GUIANA (FRGUI)
aabbcc
Your satellite tracking list
Your tracking list is empty




NASA's NSSDC Master Catalog

Two Line Element Set (TLE):
1 14421U 83105A   18053.47136376 +.00000057 +00000-0 +00000-0 0  9995
2 14421 015.0471 356.6459 0008336 339.2673 221.1371 00.99690897106958
Source of the keplerian elements: AFSPC